Location: Eaglesham
(55.7833°N, 117.9000°W)
Time: 19:31:11
(UTC+00:00)

ISS - Pass Details

Date: 29 November 2021
Orbit: 413 x 422 km, 51.6° (Epoch: 23 January)

Event Time Altitude Azimuth Distance (km) Brightness Sun altitude
Rises 00:28:11 0° 239° (WSW) 2,381 2.5 -8.2°
Reaches altitude 10° 00:30:24 10° 229° (SW) 1,515 0.6 -8.4°
Maximum altitude 00:33:28 32° 165° (SSE) 754 -2.4 -8.8°
Drops below altitude 10° 00:36:33 10° 100° (E) 1,514 -1.4 -9.2°
Enters shadow 00:36:44 - 99° (E) 1,584 -1.3 -9.2°
